Location: Kuffner-Sternwarte
(48.2130°N, 16.2960°E)
Time: 10:49:34
(UTC+01:00)

N. Korean satellite - Pass Details

Date: 19 February 2019
Orbit: 455 x 511 km, 97.2° (Epoch: 18 March)

Event Time Altitude Azimuth Distance (km) Brightness Sun altitude
Rises 18:10:44 0° 202° (SSW) 2,591 10.7 -8.7°
Reaches altitude 10° 18:13:19 10° 222° (SW) 1,704 10.1 -9.1°
Maximum altitude 18:15:56 19° 267° (W) 1,256 9.9 -9.5°
Drops below altitude 10° 18:18:34 10° 314° (NW) 1,695 9.9 -10.0°
Sets 18:21:07 0° 333° (NNW) 2,571 10.5 -10.4°
